STARLINK-33573 (62778 NORAD) Tracking and Keplerian Element Data

This shows tracking and keplerian element data for the satellite.

Feedback or suggestion? Click here.




ElementValue
Catalog62778
NameSTARLINK-33573
Epoch Orbit337
Epoch Day35.16668981
Epoch Year2025
RAAN19.0424
Inclination53.16
Eccentricity0.000115
Argument of Perigee74.2188
Mean Anonmoly112.9452
Mean Motion15.78248822
Decay Rate-0.01173646
L11 62778U 25015W 25035.16668981 -.01173646 00000+0 -75238-2 0 9999
L22 62778 53.1600 19.0424 0001150 74.2188 112.9452 15.78248822 3378



Live tracking and technical data element details for STARLINK-33573 (NORAD 62778). STARLINK-33573 can be tracked NOW for your location showing map with azimuth and elevation plus other details from your city location.







IsCatalogInMostPopularTable: catalog: 62778, numindb: 4
Update: records affected: 1



GetName: 62778 STARLINK-33573

Hit Count: updated at: Sun, 09 Feb 2025 13:41:10 GMT